This demonstration page uses our WeatherBlox Daily Observations layout. Learn more.

39.92423, -83.80882

Hourly Observations for June 10, 2019

Temp ( °F °C ) Dew Point ( °F °C ) Humidity (%) Winds ( mph kmh ) Pressure ( in mb ) Visibility ( mi km ) Precip ( " mm )
12:56 am 00:56 Cloudy 71 21.7 68 20 90 90 SE 10 17 29.93 1014 10 16.0934 0 0
1:56 am 01:56 Mostly Clear 70 21.1 68 20 93 93 SE 9 15 29.91 1013 10 16.0934 0 0
2:56 am 02:56 Partly Cloudy with Light Rain 69 20.6 68 20 96 96 SE 12 19 29.89 1012 10 16.0934 0 0.0254
3:21 am 03:21 Mostly Cloudy with Light Rain 70 21 68 20 94 94 SE 9 15 29.87 1011 10 16.0934 0 0.0254
4:56 am 04:56 Cloudy with Rain 68 20 68 20 100 100 SE 5 7 29.88 1012 7 11.26538 0.17 4.318
5:21 am 05:21 Cloudy with Light Rain 68 20 68 20 100 100 SE 6 9 29.86 1011 10 16.0934 0.05 1.27
5:52 am 05:52 Cloudy 68 20 68 20 100 100 SE 6 9 29.86 1011 10 16.0934 0.06 1.524
5:56 am 05:56 Cloudy 68 20 68 20 100 100 SE 7 11 29.87 1012 10 16.0934 0.06 1.524
6:30 am 06:30 Cloudy 68 20 68 20 100 100 SE 7 11 29.86 1011 10 16.0934 0 0
6:56 am 06:56 Cloudy with Light Rain 68 20 68 20 100 100 S 7 11 29.88 1012 10 16.0934 0 0.0254
7:35 am 07:35 Cloudy with Rain 68 20 68 20 100 100 S 7 11 29.87 1012 4 6.43736 0.18 4.572
7:56 am 07:56 Cloudy with Heavy Rain 68 20 68 20 100 100 S 6 9 29.88 1012 5 8.0467 0.27 6.858
8:19 am 08:19 Cloudy with Heavy Rain 70 21 70 21 100 100 SSW 5 7 29.86 1011 3 4.82802 0.12 3.048
8:56 am 08:56 Cloudy with Light Rain 69 20.6 69 20.6 100 100 SW 9 15 29.88 1012 10 16.0934 0.27 6.858
9:40 am 09:40 Cloudy with Light Rain 70 21 70 21 100 100 W 14 22 29.87 1011 2 3.21868 0 0.0254
9:48 am 09:48 Cloudy with Light Rain 70 21 70 21 100 100 WNW 16 26 29.87 1011 4 6.43736 0 0.0254
9:56 am 09:56 Cloudy with Light Rain 70 21.1 70 21.1 100 100 NW 12 19 29.89 1012 10 16.0934 0 0.0254
10:56 am 10:56 Cloudy 70 21.1 69 20.6 97 97 NW 13 20 29.91 1013 10 16.0934 0 0.0254
11:04 am 11:04 Cloudy 70 21 70 21 100 100 NW 15 24 29.89 1012 10 16.0934 0 0
11:41 am 11:41 Cloudy 66 19 66 19 100 100 NW 15 24 29.92 1013 10 16.0934 0 0.0254
11:56 am 11:56 Cloudy 68 20 67 19.4 96 96 WNW 14 22 29.93 1014 10 16.0934 0 0.0254
12:21 pm 12:21 Cloudy 66 19 64 18 94 94 NW 17 28 29.93 1013 10 16.0934 0 0
12:36 pm 12:36 Mostly Cloudy 70 21 64 18 83 83 NW 14 22 29.92 1013 10 16.0934 0 0
12:56 pm 12:56 Mostly Cloudy 70 21.1 66 18.9 87 87 WNW 16 26 29.93 1014 10 16.0934 0 0
1:09 pm 13:09 Cloudy 72 22 64 18 78 78 NW 21 33 29.91 1013 10 16.0934 0 0
1:19 pm 13:19 Cloudy 72 22 66 19 83 83 NW 20 31 29.91 1013 10 16.0934 0 0
1:34 pm 13:34 Cloudy 72 22 64 18 78 78 NW 20 31 29.92 1013 10 16.0934 0 0
1:56 pm 13:56 Cloudy 71 21.7 65 18.3 81 81 WNW 17 28 29.95 1014 10 16.0934 0 0
2:56 pm 14:56 Cloudy 69 20.6 63 17.2 81 81 WNW 18 30 29.97 1015 10 16.0934 0 0
3:56 pm 15:56 Cloudy 66 18.9 60 15.6 81 81 WNW 24 39 30 1016 10 16.0934 0 0
4:56 pm 16:56 Cloudy 67 19.4 59 15 76 76 WNW 24 39 30.01 1016 10 16.0934 0 0
5:10 pm 17:10 Cloudy 66 19 57 14 73 73 NW 20 31 30.02 1016 10 16.0934 0 0
5:56 pm 17:56 Mostly Cloudy 67 19.4 56 13.3 68 68 NW 20 31 30.03 1017 9 14.48406 0 0
6:56 pm 18:56 Partly Cloudy 66 18.9 53 11.7 63 63 NW 16 26 30.06 1018 10 16.0934 0 0
7:56 pm 19:56 Mostly Sunny 65 18.3 53 11.7 66 66 NW 17 28 30.08 1019 10 16.0934 0 0
8:56 pm 20:56 Sunny 63 17.2 51 10.6 65 65 NW 13 20 30.11 1020 10 16.0934 0 0
9:56 pm 21:56 Clear 61 16.1 49 9.4 65 65 NNW 10 17 30.14 1021 10 16.0934 0 0
10:56 pm 22:56 Clear 57 13.9 49 9.4 74 74 NW 6 9 30.16 1021 10 16.0934 0 0
11:56 pm 23:56 Clear 55 12.8 50 10 83 83 WNW 6 9 30.17 1022 10 16.0934 0 0

Powered by AerisWeather